[[{"header":{"parameterUnit":"m.s-1","parameterCategory":1,"la1":30.2991,"la2":30.254,"lo1":-89.0895,"lo2":-89.0444,"dy":0.0017,"dx":0.0017,"nx":28,"ny":28,"refTime":"2024-03-30T09:00:00:Z","depth":0,"parameterNumber":2,"parameterNumberName":"U-component_of_WINDS"},"data":[0,0,0,0,0,0,0,0,0,0,0,0,0,0,0,0,0,0,0,0,0,0,0,0,0,0,0,0,0,0,0,0,0,0,0,0,0,0,0,0,0,0,0,0,0,0,0,0,0,0,0,0,0,0,0,0,0,0,-0.2474,-0.2473,0,-0.2455,-0.2454,-0.2454,-0.2439,-0.2439,-0.2439,-0.2439,-0.2421,-0.242,-0.242,0,0,0,0,0,0,0,0,0,0,0,0,0,-0.2499,-0.2498,-0.2474,-0.2473,-0.2473,-0.2455,-0.2454,-0.2454,-0.2439,-0.2439,-0.2439,-0.2439,-0.2421,-0.242,-0.242,0,0,0,0,0,0,0,0,0,0,0,0,0,-0.2485,-0.2498,-0.2474,-0.2463,-0.2462,-0.2455,-0.2454,-0.2454,-0.2439,-0.2439,-0.2439,-0.2439,-0.2421,-0.242,-0.242,-0.2421,0,0,-0.2418,-0.2418,0,0,0,0,0,0,0,0,-0.2485,-0.2484,-0.2465,-0.2464,-0.2463,-0.2449,-0.2457,-0.2443,-0.2439,-0.2448,-0.2439,-0.2438,-0.243,-0.2429,-0.2426,-0.242,-0.242,-0.2418,-0.2418,-0.2418,-0.2418,0,0,0,0,0,0,0,-0.2486,-0.2484,-0.2466,-0.2465,-0.2463,-0.246,-0.2458,-0.2454,-0.2441,-0.2447,-0.2446,-0.2444,-0.243,-0.2427,-0.2425,-0.2419,-0.2418,-0.2418,-0.2418,-0.2417,-0.2415,-0.2415,0,0,0,0,0,0,-0.2489,-0.2485,-0.2467,-0.2466,-0.2474,-0.246,-0.2458,-0.2454,-0.2441,-0.2439,-0.2444,-0.2443,-0.2428,-0.2426,-0.2425,-0.2426,-0.2418,-0.2417,-0.2417,-0.2415,-0.2415,-0.2416,0,0,0,0,0,0,-0.2489,-0.2487,-0.2467,-0.2475,-0.2472,-0.246,-0.2456,-0.2453,-0.245,-0.2438,-0.2436,-0.2443,-0.2427,-0.2426,-0.2422,-0.2425,-0.2417,-0.2417,-0.2415,-0.2415,-0.2415,-0.2429,0,0,0,0,0,0,-0.249,-0.2487,-0.2487,-0.2475,-0.2472,-0.2465,-0.2456,-0.2453,-0.2449,-0.2448,-0.2437,-0.2435,-0.2427,-0.2423,-0.2422,-0.2425,-0.2416,-0.2414,-0.2415,-0.2415,-0.2428,-0.243,-0.2431,0,0,0,0,0,-0.2491,-0.2492,-0.2487,-0.2485,-0.2472,-0.2465,-0.2463,-0.2454,-0.245,-0.245,-0.2442,-0.2435,-0.2425,-0.2423,-0.2421,-0.2424,-0.2414,-0.2415,-0.2415,-0.2427,-0.2429,-0.2431,0,0,0,0,0,0,-0.2505,-0.249,-0.2485,-0.2482,-0.2475,-0.2463,-0.2462,-0.2456,-0.245,-0.2449,-0.2438,-0.2436,-0.2434,-0.2429,-0.2426,-0.2425,-0.2419,-0.2419,-0.2429,-0.243,-0.2432,-0.2433,-0.2416,0,0,0,0,0,-0.2508,-0.2503,-0.2491,-0.2489,-0.2486,-0.2475,-0.2472,-0.2465,-0.2457,-0.2454,-0.2447,-0.244,-0.2435,-0.2433,-0.2428,-0.2427,-0.2425,-0.2428,-0.243,-0.2431,-0.2431,-0.2432,-0.2433,-0.2417,-0.2417,-0.2417,0,0,-0.2513,-0.2505,-0.2502,-0.2492,-0.2486,-0.2482,-0.2472,-0.2469,-0.2466,-0.2454,-0.2451,-0.2445,-0.2437,-0.2435,-0.2434,-0.2431,-0.2435,-0.2432,-0.2433,-0.2432,-0.2432,-0.2434,-0.2435,-0.2418,-0.2418,-0.2418,0,0,-0.2521,-0.2514,-0.2512,-0.2507,-0.2497,-0.249,-0.249,-0.2479,-0.2474,-0.2471,-0.2462,-0.2459,-0.2451,-0.2446,-0.2442,-0.2449,-0.2443,-0.2448,-0.2456,-0.2456,-0.2457,-0.2458,-0.2461,-0.2463,-0.2449,-0.2449,-0.2449,0,-0.253,-0.2523,-0.2513,-0.2509,-0.2505,-0.2494,-0.2493,-0.2488,-0.2478,-0.2476,-0.2472,-0.2462,-0.2456,-0.2453,-0.2455,-0.2452,-0.2452,-0.2449,-0.2458,-0.2459,-0.246,-0.2463,-0.2464,-0.2449,-0.2449,-0.2449,-0.2449,0,-0.2534,-0.253,-0.253,-0.252,-0.2516,-0.2514,-0.2504,-0.2501,-0.2495,-0.2488,-0.2485,-0.2478,-0.2471,-0.247,-0.2464,-0.2467,-0.2465,-0.246,-0.2453,-0.2462,-0.2465,-0.2466,-0.245,-0.245,-0.245,-0.245,0,0,-0.255,-0.2535,-0.2535,-0.2531,-0.252,-0.2517,-0.2515,-0.2508,-0.2507,-0.25,-0.2499,-0.2493,-0.2488,-0.2484,-0.2477,-0.2477,-0.2485,-0.2472,-0.2472,-0.2475,-0.2488,-0.2492,-0.2494,-0.248,-0.248,-0.2481,-0.2489,0,-0.2557,-0.2552,-0.2543,-0.2541,-0.2537,-0.2527,-0.2525,-0.2519,-0.2513,-0.251,-0.2503,-0.2499,-0.2493,-0.249,-0.249,-0.2484,-0.2487,-0.2483,-0.2479,-0.2479,-0.2482,-0.2495,-0.2499,-0.2508,-0.249,-0.249,-0.249,0,-0.2564,-0.2558,-0.2556,-0.2546,-0.2544,-0.2543,-0.2537,-0.2533,-0.2526,-0.2522,-0.2518,-0.2511,-0.2509,-0.2503,-0.25,-0.2498,-0.2496,-0.2492,-0.2492,-0.2492,-0.2485,-0.2495,-0.251,-0.2511,-0.2491,-0.2491,-0.2491,0,-0.2576,-0.2568,-0.2566,-0.2562,-0.2551,-0.255,-0.2546,-0.2538,-0.2535,-0.253,-0.2528,-0.2523,-0.252,-0.2517,-0.2509,-0.2505,-0.2507,-0.25,-0.2504,-0.2505,-0.2505,-0.2505,-0.252,-0.2504,-0.2504,-0.2504,-0.2504,0,-0.2585,-0.2584,-0.2571,-0.257,-0.2569,-0.2559,-0.2559,-0.2553,-0.2547,-0.2545,-0.2536,-0.2534,-0.2524,-0.2521,-0.2515,-0.2514,-0.2513,-0.251,-0.2508,-0.2511,-0.2511,-0.2509,-0.2509,-0.2504,-0.2504,-0.2504,-0.2504,0,-0.2599,-0.259,-0.2587,-0.2577,-0.2574,-0.2574,-0.2565,-0.2564,-0.2558,-0.2555,-0.2554,-0.2545,-0.2541,-0.2533,-0.2527,-0.2523,-0.2524,-0.2521,-0.2526,-0.2525,-0.253,-0.253,-0.2544,-0.2546,-0.2528,-0.2528,-0.2528,0,-0.2605,-0.2604,-0.2594,-0.2592,-0.2587,-0.2584,-0.2581,-0.2572,-0.2569,-0.2561,-0.2561,-0.2557,-0.2553,-0.2548,-0.2541,-0.2537,-0.2534,-0.2539,-0.2533,-0.2536,-0.2534,-0.2535,-0.2535,-0.2541,-0.2541,-0.2541,-0.2541,0,-0.2617,-0.2613,-0.2609,-0.2604,-0.26,-0.2596,-0.259,-0.2589,-0.2579,-0.2576,-0.2573,-0.257,-0.2564,-0.256,-0.2555,-0.2551,-0.2545,-0.2543,-0.2544,-0.2547,-0.255,-0.2549,-0.253,-0.2543,-0.2543,-0.2543,-0.2542,-0.2542,-0.2628,-0.2627,-0.262,-0.2616,-0.2611,-0.2606,-0.2605,-0.2599,-0.2595,-0.259,-0.2584,-0.2581,-0.2575,-0.2568,-0.2564,-0.2562,-0.2559,-0.256,-0.256,-0.256,-0.2562,-0.255,-0.2561,-0.2561,-0.2561,-0.2561,-0.2561,0,-0.264,-0.2635,-0.2631,-0.2625,-0.2622,-0.2616,-0.261,-0.2608,-0.2605,-0.26,-0.2597,-0.2593,-0.2589,-0.2582,-0.2578,-0.2578,-0.2575,-0.2577,-0.2577,-0.2576,-0.2565,-0.2565,-0.2579,-0.2579,-0.2579,-0.2579,-0.2579,-0.2579,-0.2646,-0.2645,-0.264,-0.2636,-0.2631,-0.2628,-0.2625,-0.2621,-0.2617,-0.2613,-0.261,-0.2605,-0.26,-0.2595,-0.2592,-0.259,-0.2589,-0.2592,-0.259,-0.2579,-0.2577,-0.2575,-0.2575,-0.2592,-0.2592,-0.2602,-0.2602,-0.2602]},{"header":{"parameterUnit":"m.s-1","parameterCategory":1,"la1":30.2991,"la2":30.254,"lo1":-89.0895,"lo2":-89.0444,"dy":0.0017,"dx":0.0017,"nx":28,"ny":28,"refTime":"2024-03-30T09:00:00:Z","depth":0,"parameterNumber":3,"parameterNumberName":"V-component_of_WINDS"},"data":[0,0,0,0,0,0,0,0,0,0,0,0,0,0,0,0,0,0,0,0,0,0,0,0,0,0,0,0,0,0,0,0,0,0,0,0,0,0,0,0,0,0,0,0,0,0,0,0,0,0,0,0,0,0,0,0,0,0,6.3677,6.3678,0,6.3755,6.3756,6.3757,6.3713,6.3711,6.3709,6.3707,6.3778,6.3782,6.3786,0,0,0,0,0,0,0,0,0,0,0,0,0,6.3481,6.3485,6.3677,6.3678,6.3679,6.3755,6.3756,6.3757,6.3714,6.3711,6.3708,6.3706,6.3777,6.3781,6.3786,0,0,0,0,0,0,0,0,0,0,0,0,0,6.3563,6.3486,6.3676,6.3666,6.3666,6.3755,6.3756,6.3757,6.3714,6.3711,6.3708,6.3705,6.3775,6.3781,6.3787,6.3887,0,0,6.3804,6.3807,0,0,0,0,0,0,0,0,6.3559,6.3571,6.3667,6.3667,6.3667,6.3721,6.3713,6.38,6.3715,6.3696,6.3707,6.3703,6.3761,6.3768,6.3789,6.389,6.3893,6.3805,6.3808,6.3811,6.3813,0,0,0,0,0,0,0,6.3553,6.3567,6.3707,6.3668,6.3669,6.3655,6.3663,6.3729,6.3745,6.3697,6.3694,6.3705,6.3761,6.3784,6.3791,6.3894,6.3805,6.381,6.3814,6.3816,6.4082,6.4086,0,0,0,0,0,0,6.3549,6.3562,6.3705,6.371,6.3604,6.3661,6.3671,6.3707,6.3744,6.3747,6.3707,6.3702,6.3775,6.3784,6.3793,6.3914,6.3811,6.3816,6.382,6.4079,6.4083,6.4087,0,0,0,0,0,0,6.3545,6.3562,6.3702,6.3635,6.3652,6.3668,6.371,6.371,6.3734,6.3752,6.3754,6.3729,6.3773,6.3785,6.3865,6.3916,6.3819,6.3824,6.4074,6.408,6.4085,6.4156,0,0,0,0,0,0,6.354,6.3561,6.3601,6.3637,6.3656,6.3775,6.3713,6.3714,6.3745,6.3739,6.3773,6.3775,6.3772,6.3856,6.3871,6.3922,6.3829,6.407,6.4077,6.4083,6.415,6.4164,6.4176,0,0,0,0,0,6.3533,6.3615,6.3603,6.3621,6.3707,6.3778,6.3788,6.3785,6.3749,6.3788,6.3801,6.3774,6.3908,6.3865,6.388,6.3935,6.4067,6.4075,6.4083,6.4144,6.4161,6.4175,0,0,0,0,0,0,6.3581,6.362,6.3607,6.3704,6.3739,6.377,6.3819,6.3803,6.3846,6.3838,6.383,6.3838,6.3922,6.3936,6.3887,6.4034,6.3981,6.3993,6.4022,6.4039,6.4052,6.4046,6.3834,0,0,0,0,0,6.3604,6.3661,6.3691,6.3773,6.3792,6.3803,6.3834,6.3829,6.3863,6.3876,6.3894,6.3926,6.3975,6.4007,6.4053,6.4151,6.4158,6.4196,6.4209,6.422,6.423,6.4284,6.4302,6.4113,6.4113,6.4113,0,0,6.3649,6.3678,6.3714,6.3784,6.381,6.3868,6.3815,6.3877,6.392,6.3884,6.3963,6.3977,6.4011,6.4102,6.4142,6.4116,6.4284,6.423,6.4238,6.4243,6.4294,6.4312,6.4328,6.4119,6.4118,6.4117,0,0,6.3763,6.379,6.3864,6.3892,6.3934,6.3941,6.3959,6.3994,6.4004,6.4083,6.4058,6.4107,6.4191,6.4218,6.4243,6.4369,6.4347,6.4384,6.4452,6.4505,6.452,6.4533,6.4579,6.4596,6.4394,6.4394,6.4394,0,6.3814,6.3903,6.3902,6.3968,6.4,6.3975,6.4048,6.4074,6.4127,6.4149,6.4119,6.4228,6.4249,6.4345,6.4377,6.4397,6.4416,6.438,6.4519,6.4532,6.4544,6.4588,6.4605,6.4399,6.4398,6.4398,6.4397,0,6.3964,6.4026,6.4079,6.4137,6.4174,6.4243,6.4251,6.4288,6.4281,6.4291,6.4371,6.4397,6.4449,6.4471,6.4462,6.4567,6.455,6.452,6.4467,6.4566,6.4608,6.4624,6.4405,6.4403,6.4402,6.4401,0,0,6.4108,6.4168,6.4187,6.4214,6.4259,6.4306,6.4373,6.4428,6.4461,6.4498,6.4555,6.4629,6.4602,6.463,6.4624,6.4671,6.4771,6.4635,6.4635,6.466,6.489,6.4913,6.4933,6.4757,6.476,6.4762,6.4887,0,6.4226,6.4349,6.4351,6.4463,6.452,6.4498,6.4557,6.459,6.4602,6.465,6.4661,6.4715,6.4675,6.4692,6.4737,6.475,6.4817,6.474,6.4808,6.481,6.4801,6.4954,6.4978,6.5095,6.4903,6.4906,6.4908,0,6.438,6.4428,6.4547,6.4587,6.4611,6.4664,6.4716,6.4763,6.48,6.4804,6.4838,6.4826,6.4893,6.4838,6.493,6.4878,6.4905,6.4916,6.492,6.4927,6.4866,6.4965,6.5132,6.515,6.4933,6.4931,6.4929,0,6.4475,6.4569,6.4653,6.4676,6.4724,6.4763,6.4784,6.4818,6.4852,6.4895,6.4917,6.4966,6.4994,6.5031,6.5032,6.4992,6.5126,6.5071,6.5131,6.5132,6.5161,6.5159,6.5335,6.5177,6.5177,6.5176,6.5176,0,6.4607,6.4681,6.4697,6.4749,6.4831,6.4832,6.4912,6.4929,6.496,6.5013,6.4995,6.5045,6.5043,6.5093,6.5093,6.517,6.5182,6.5187,6.5187,6.519,6.5189,6.5208,6.52,6.5181,6.518,6.5179,6.5178,0,6.4727,6.4741,6.4832,6.4872,6.4884,6.4942,6.4975,6.5023,6.5034,6.5102,6.5117,6.5133,6.5191,6.5197,6.5262,6.5263,6.5357,6.5346,6.5346,6.5344,6.5405,6.54,6.5599,6.5626,6.545,6.5452,6.5453,0,6.4811,6.4868,6.4916,6.4953,6.4977,6.5035,6.5071,6.5074,6.5111,6.5159,6.5201,6.5259,6.5305,6.5398,6.5414,6.5464,6.5456,6.5522,6.5463,6.5465,6.5458,6.5456,6.5462,6.5534,6.5536,6.5537,6.5539,0,6.4958,6.4964,6.5017,6.5075,6.5119,6.5163,6.5204,6.5234,6.5242,6.5284,6.5346,6.5382,6.5452,6.5509,6.5559,6.5577,6.556,6.5558,6.5575,6.5578,6.5576,6.558,6.5378,6.5553,6.5551,6.555,6.555,6.5549,6.5064,6.5114,6.5158,6.5218,6.5251,6.5291,6.5339,6.5358,6.5411,6.5471,6.5468,6.5536,6.5572,6.5639,6.5662,6.5713,6.569,6.5714,6.5721,6.5727,6.5734,6.5568,6.5722,6.5721,6.5721,6.5721,6.572,0,6.5211,6.5239,6.5295,6.5357,6.5405,6.5387,6.5432,6.5473,6.5534,6.5571,6.5619,6.569,6.5745,6.5767,6.5821,6.5858,6.5852,6.5872,6.587,6.5875,6.5751,6.5732,6.5877,6.5877,6.5877,6.5877,6.5877,6.5877,6.5294,6.538,6.5391,6.5492,6.5518,6.5588,6.5615,6.5651,6.5682,6.5764,6.5811,6.5826,6.5857,6.5914,6.5964,6.5968,6.5989,6.6014,6.6015,6.5899,6.5883,6.5868,6.585,6.6019,6.6019,6.6135,6.6137,6.6137]}]]